Lapse_Rate
7.9 8.5 9.3 9.3 8.4 7.7 7.7 8.4 8.2 8.1 8.1 6.8 5.5 5.1 5.8 6.2 4.9 3.7 3.4 4.9 5.1 7.6 6.6 5.6 5.5 5.0 4.9 5.1 5.1 4.7 6.5 6.5 6.5 6.5 6.5 6.6 6.6 6.4 6.3 6.7 6.3 6.4 6.3 6.4 5.6
8.1 8.0 8.3 8.6 8.5 8.3 7.6 7.6 7.7 8.6 8.0 7.7 6.5 5.7 5.9 5.3 4.5 3.7 5.2 6.7 7.7 7.3 5.8 5.4 5.1 5.2 4.5 5.5 5.2 6.3 6.5 6.5 6.6 6.6 6.5 6.8 6.7 6.8 6.7 6.8 6.6 6.4 5.8 5.4 4.9
8.2 8.2 8.0 8.4 8.0 7.9 7.9 7.2 7.5 8.2 8.3 8.2 8.1 6.1 5.0 3.9 6.0 5.7 6.3 7.5 9.2 6.9 5.7 5.8 5.6 5.1 5.7 5.7 5.9 6.4 6.5 6.5 6.6 6.7 6.5 6.7 6.7 6.6 6.7 6.5 6.4 6.8 6.8 6.5 5.8
8.5 8.4 8.1 8.7 8.2 8.3 7.6 7.1 7.6 8.0 8.1 7.9 8.4 6.3 5.3 4.6 6.5 6.4 7.7 9.1 8.3 6.4 6.5 6.1 5.6 5.3 6.4 6.5 6.3 6.5 6.6 6.7 6.6 6.1 6.5 6.6 6.6 6.8 6.8 6.9 6.8 6.5 6.4 5.8 6.2
8.8 8.7 8.4 8.7 8.1 7.8 7.4 6.7 7.0 8.1 8.6 8.0 7.5 6.5 5.8 6.2 6.4 7.1 8.4 8.5 7.1 6.6 6.2 5.5 5.3 5.7 6.5 6.4 6.4 6.5 6.6 6.5 6.2 5.6 5.9 6.1 6.7 6.6 6.7 6.2 6.4 6.0 6.1 5.5 5.6
8.3 8.2 8.2 8.0 8.0 7.3 7.3 7.1 6.8 7.5 8.2 8.4 7.3 5.4 5.5 6.5 5.3 7.1 7.2 6.8 6.4 5.8 5.7 5.6 5.7 5.3 5.9 6.3 6.4 6.4 6.5 6.4 5.8 6.1 6.3 6.6 6.7 6.5 5.6 5.1 5.4 6.5 6.6 6.1 5.4
8.2 8.2 8.1 7.9 7.9 7.4 7.7 6.9 7.2 8.3 7.8 7.8 7.8 6.5 6.1 6.0 5.7 6.6 7.4 6.7 6.7 5.9 5.4 5.5 5.5 5.1 5.6 6.5 6.1 6.4 6.5 6.5 6.5 6.5 6.5 6.3 6.5 6.5 5.1 5.8 5.6 5.6 5.8 5.6 5.5
8.2 8.2 8.3 8.0 7.9 7.5 7.3 7.1 6.9 6.5 6.7 6.9 7.1 5.7 6.5 5.4 6.3 7.3 7.2 6.6 6.2 5.9 5.0 5.3 5.4 5.0 5.8 6.2 6.0 6.5 6.5 6.5 6.5 6.6 6.5 6.4 6.5 6.5 5.4 6.0 6.3 5.8 6.4 6.2 6.0
7.6 7.9 8.0 7.8 7.4 7.0 6.8 6.5 6.6 5.5 5.6 7.1 6.3 5.9 6.2 6.2 7.4 7.3 7.1 6.6 6.4 6.0 6.2 6.6 5.0 5.5 5.5 6.5 6.5 6.5 6.5 6.5 6.5 6.6 6.5 6.5 6.5 6.6 6.0 6.6 7.1 7.2 6.7 6.4 6.1
6.9 7.7 7.4 7.3 6.6 6.5 6.1 6.1 5.6 6.6 7.2 7.6 6.3 6.4 6.4 6.3 6.8 6.9 6.7 6.6 6.4 6.3 5.9 5.2 4.7 6.5 6.5 6.5 6.5 6.5 6.5 6.5 6.5 6.5 6.5 6.5 6.5 6.5 7.0 7.0 7.0 7.1 6.8 6.3 5.8
7.4 7.1 7.3 6.3 6.5 6.6 5.0 4.7 5.8 7.0 6.4 7.0 6.8 7.0 7.0 6.2 7.1 6.9 7.2 6.5 6.6 5.9 6.5 6.4 6.5 6.5 6.5 6.5 6.5 6.5 6.5 6.5 6.5 6.5 6.5 6.5 6.5 6.5 6.7 6.7 6.7 6.5 7.3 7.3 6.6
7.4 7.4 7.5 7.2 7.4 6.7 4.6 4.5 4.3 6.1 6.4 6.9 6.7 6.8 7.1 7.9 7.4 6.9 7.3 6.2 6.4 6.5 6.6 6.5 6.5 6.5 6.5 6.5 6.5 6.5 6.5 6.5 6.5 6.5 6.5 6.5 6.5 6.5 6.5 6.6 6.7 7.0 7.0 7.0 7.1
7.2 7.4 7.4 7.4 6.9 5.0 5.8 5.7 5.5 6.1 6.6 6.6 7.3 7.2 7.2 7.5 7.0 6.6 6.6 6.2 6.4 6.5 6.5 6.5 6.5 6.5 6.5 6.5 6.5 6.5 6.5 6.5 6.5 6.5 6.5 6.5 6.5 6.5 6.5 6.6 6.7 7.0 7.4 6.9 6.4
7.5 7.3 7.2 7.2 6.3 6.2 6.3 6.1 5.8 5.2 6.5 6.5 6.8 7.1 7.5 7.0 6.8 6.8 6.5 6.4 6.5 6.5 6.5 6.5 6.5 6.5 6.5 6.5 6.5 6.5 6.5 6.5 6.5 6.5 6.5 6.5 6.5 6.5 6.5 6.5 6.5 6.8 7.1 7.2 6.7
7.3 7.2 6.9 6.7 6.1 5.7 5.8 5.7 5.0 5.6 6.5 6.5 6.6 7.8 7.4 6.8 6.6 6.6 6.0 6.3 6.5 6.5 6.5 6.5 6.5 6.5 6.5 6.5 6.5 6.5 6.5 6.5 6.5 6.5 6.5 6.5 6.5 6.5 6.5 6.5 6.5 6.6 7.1 7.2 7.3
6.1 5.9 6.1 5.1 5.2 5.3 4.6 5.6 5.5 6.5 6.5 6.5 6.7 6.6 6.5 6.6 6.7 6.3 6.2 5.8 6.4 6.5 6.5 6.5 6.3 6.5 6.5 6.5 6.5 6.5 6.5 6.5 6.5 6.5 6.5 6.5 6.5 6.5 6.5 6.5 6.5 6.7 7.0 7.1 6.9
6.9 5.9 4.0 4.0 4.9 4.8 4.3 4.7 6.5 6.5 6.5 6.5 6.5 6.5 6.5 6.5 6.5 6.5 6.5 6.5 6.5 6.5 6.5 6.5 6.5 6.5 6.6 6.5 6.5 6.5 6.5 6.5 6.5 6.5 6.5 6.5 6.5 6.5 6.5 6.5 6.5 6.6 6.9 7.0 6.8
6.2 4.6 3.5 4.3 3.8 3.5 3.8 6.3 6.5 6.5 6.5 6.5 6.5 6.5 6.5 6.5 6.5 6.5 6.5 6.5 6.5 6.5 6.5 6.5 6.5 6.5 6.5 6.5 6.5 6.5 6.5 6.5 6.5 6.5 6.5 6.5 6.5 6.5 6.5 6.8 7.0 7.1 7.1 7.1 6.9
3.5 1.8 2.8 2.8 2.3 1.9 3.8 6.5 6.5 6.5 6.5 6.5 6.5 6.5 6.5 6.5 6.5 6.5 6.5 6.5 6.5 6.5 6.5 6.5 6.5 6.5 6.5 6.5 6.5 6.5 6.5 6.5 6.5 6.5 6.5 6.5 6.5 6.5 6.5 6.5 6.7 6.9 6.9 7.0 6.9
-0.6 0.2 1.6 1.7 0.7 1.3 5.9 6.5 6.5 6.5 6.5 6.5 6.5 6.5 6.5 6.5 6.5 6.5 6.5 6.5 6.5 6.5 6.4 6.5 6.5 6.5 6.5 6.5 6.5 6.5 6.5 6.5 6.5 6.5 6.5 6.5 6.5 6.5 6.5 6.5 6.5 6.7 6.9 7.0 7.2
-0.9 2.4 1.5 -0.4 0.0 3.3 6.5 6.5 6.5 6.2 6.4 6.5 6.5 6.5 6.5 6.5 6.5 6.5 6.5 6.5 6.5 6.5 6.5 6.5 6.5 6.5 6.5 6.5 6.5 6.5 6.5 6.5 6.5 6.5 6.5 6.5 6.5 6.5 6.5 6.5 6.5 6.7 6.8 7.0 7.1
-0.6 6.3 1.2 -1.2 4.3 5.2 6.5 6.5 6.6 6.3 6.2 6.5 6.5 6.5 6.5 6.5 6.5 6.5 6.5 6.5 5.9 6.2 6.5 6.5 6.5 6.5 6.5 6.5 6.5 6.5 6.5 6.5 6.5 6.5 6.5 6.5 6.5 6.5 6.5 6.6 6.7 6.7 6.9 6.9 6.6
-0.1 0.2 0.2 -0.5 6.5 6.5 6.4 6.5 6.2 6.5 6.5 6.5 6.5 6.5 6.5 6.5 6.5 6.5 6.5 6.4 5.5 6.4 6.5 6.5 6.5 6.5 6.5 6.5 6.5 6.5 6.5 6.5 6.5 6.5 6.5 6.5 6.5 6.5 6.6 6.6 6.8 6.8 7.1 6.9 6.6
0.3 6.5 0.9 0.4 3.5 6.4 6.5 6.5 6.5 5.8 6.3 6.1 6.5 6.3 6.5 6.5 6.5 6.5 6.5 6.5 5.2 5.8 6.6 6.1 6.5 6.5 6.5 6.5 6.5 6.5 6.5 6.5 6.5 6.5 6.5 6.5 6.5 6.5 6.5 6.5 6.7 6.4 6.1 5.6 5.2
-0.0 4.9 4.4 6.5 5.8 6.3 6.5 6.5 6.5 6.5 5.7 5.4 6.5 6.5 6.5 6.5 6.5 6.5 6.5 6.5 6.3 6.4 6.2 6.5 6.5 6.5 6.5 6.5 6.5 6.5 6.5 6.5 6.5 6.5 6.5 6.5 6.5 6.5 6.5 6.5 5.9 4.9 4.8 4.9 4.9
2.2 3.1 2.2 4.3 4.5 6.4 6.6 6.5 6.5 6.5 6.5 6.5 6.5 6.5 6.5 6.5 6.5 6.5 6.5 6.5 6.5 6.4 6.5 6.5 6.5 6.5 6.5 6.5 6.5 6.5 6.5 6.5 6.5 6.5 6.5 6.5 6.5 6.5 5.5 4.8 5.0 4.6 4.4 4.5 4.3
-2.2 -0.4 2.5 5.7 5.9 6.5 6.5 6.5 6.5 6.4 6.3 6.2 6.4 6.5 6.5 6.5 5.5 4.7 4.7 5.0 6.0 6.5 6.5 6.5 6.5 6.5 6.5 6.5 6.5 6.5 6.5 6.5 6.5 6.5 6.5 6.5 6.5 6.6 6.5 6.3 5.3 4.1 3.6 3.7 3.7
Wind_Speed
14 15 12 13 13 12 12 9 8 8 10 10 7 12 19 13 9 2 3 5 5 8 5 3 5 4 4 4 4 2 3 2 3 5 1 2 5 2 2 4 3 3 3 7 11
16 15 15 11 13 12 11 8 5 8 8 8 8 6 7 12 3 4 3 9 12 10 4 4 4 4 4 3 3 3 2 5 2 2 2 5 1 4 4 4 5 8 9 8 12
15 14 14 13 13 13 12 6 10 8 8 6 9 6 15 8 2 1 8 12 11 9 5 3 5 3 4 3 2 2 3 4 1 2 4 4 7 3 4 5 7 5 6 10 10
13 13 12 12 12 12 9 7 11 10 5 7 10 2 12 5 3 3 11 13 14 10 4 5 4 4 4 3 1 3 2 2 1 2 2 3 4 6 10 10 11 15 11 6 14
14 13 13 12 9 8 4 1 10 10 5 3 7 5 4 3 2 6 10 18 8 5 4 4 4 4 5 4 2 2 1 2 2 8 6 6 11 10 11 15 15 15 13 12 11
13 10 9 9 9 5 2 5 10 13 6 2 5 8 5 6 3 6 14 8 5 5 3 4 3 4 6 3 3 1 2 5 6 5 5 6 5 1 9 6 9 12 14 13 12
14 11 9 9 7 3 2 1 5 15 9 3 5 6 5 6 2 9 10 3 2 5 5 3 5 6 3 3 1 1 4 6 2 2 4 4 4 7 11 8 9 10 11 13 14
11 6 6 6 3 2 3 6 8 16 13 13 4 0 5 2 9 11 9 5 6 7 8 5 7 7 4 3 5 4 3 4 2 5 2 5 7 5 9 6 12 14 16 14 16
5 3 3 3 6 3 4 5 12 19 11 13 3 4 5 2 8 5 4 7 6 6 7 6 5 4 4 3 4 6 1 2 7 2 2 1 11 10 11 14 18 16 14 15 15
9 7 9 10 9 3 4 12 12 15 16 12 3 6 3 5 3 4 4 7 6 5 5 6 5 3 3 3 2 1 2 3 5 2 2 14 19 17 14 12 16 15 14 14 15
12 11 12 13 10 8 2 3 4 6 10 5 11 4 11 8 6 5 4 7 4 6 3 3 4 2 2 3 5 5 1 5 5 9 6 9 15 17 16 8 7 7 8 11 11
14 15 12 13 10 8 4 6 4 3 11 13 14 12 11 6 10 4 3 4 4 3 2 4 3 1 4 4 3 2 4 6 8 5 4 10 18 16 6 2 2 8 9 10 10
16 13 11 13 11 7 5 8 2 6 6 6 7 6 4 6 6 4 3 3 4 3 2 3 5 5 3 2 1 3 3 2 6 8 8 8 8 3 2 2 6 7 8 9 9
15 10 5 5 4 1 5 3 2 1 4 8 6 3 2 5 6 3 3 3 2 4 5 1 1 2 2 3 4 2 5 9 9 7 4 3 5 4 2 5 4 6 8 10 11
14 13 16 10 2 3 1 2 4 1 6 5 4 4 1 3 9 5 3 4 3 4 4 5 5 3 2 4 5 6 5 6 9 9 7 4 4 4 2 3 9 6 8 8 8
17 12 6 6 3 3 7 3 0 4 7 3 3 6 4 4 4 3 3 5 1 2 0 3 2 3 4 3 7 6 5 9 11 5 4 3 3 3 2 5 8 5 6 7 8
12 12 7 3 0 5 4 2 5 7 2 4 4 2 5 3 4 2 2 1 2 3 4 2 2 2 3 3 4 5 3 3 2 2 5 5 4 5 3 6 8 3 5 7 8
5 6 5 3 3 3 2 3 9 5 5 2 2 4 4 3 2 2 2 1 2 3 3 4 5 5 4 4 1 4 2 1 3 2 3 5 4 2 2 5 5 6 5 6 7
2 1 1 3 7 3 3 8 3 2 3 6 3 4 2 2 5 1 1 1 2 5 3 2 4 2 5 3 2 3 2 2 3 3 3 2 2 3 1 2 7 7 7 7 8
2 3 3 9 2 3 4 9 4 1 2 2 2 2 3 4 4 4 3 1 0 4 3 1 4 3 2 3 4 2 2 1 1 3 4 2 2 4 7 5 3 4 5 8 8
3 4 3 16 2 6 7 5 4 3 1 2 2 4 3 2 3 2 2 2 2 3 4 1 1 5 1 5 5 3 2 2 2 2 2 4 1 5 5 4 4 1 5 6 7
3 4 4 4 5 2 4 3 4 4 2 2 3 3 3 2 2 1 2 4 5 5 3 2 1 4 6 2 1 2 3 3 2 2 2 1 3 4 3 4 3 5 7 5 2
3 2 3 5 5 3 2 2 2 5 4 5 4 3 1 3 2 0 1 1 6 4 4 3 2 4 5 4 3 2 1 2 1 2 3 2 3 2 3 5 5 6 6 4 3
3 4 5 4 2 4 4 5 4 4 4 3 3 3 2 3 2 2 3 1 6 4 4 4 2 5 5 5 2 4 2 0 2 2 2 4 3 4 5 6 7 6 5 4 4
4 0 1 3 5 5 2 4 4 5 4 5 4 4 0 3 2 2 2 4 2 1 3 3 3 3 6 7 3 5 6 3 5 5 4 3 5 6 8 9 8 6 4 5 5
3 3 2 1 3 3 6 6 6 4 4 5 5 3 3 3 3 2 1 2 2 3 2 0 2 1 5 3 6 6 7 7 6 3 5 4 6 6 4 3 4 7 6 6 6
1 2 3 4 3 3 2 3 3 1 1 1 1 1 2 2 4 5 5 2 3 1 1 1 1 3 5 3 5 6 7 8 5 4 5 6 6 4 5 7 8 8 7 8 7
Wind_Direction
296 288 290 297 305 307 268 259 285 290 306 299 320 330 336 158 130 88 227 208 171 145 100 103 43 45 52 70 61 111 83 181 203 168 270 14 10 322 321 279 324 293 274 300 321
297 291 293 298 300 302 275 262 265 290 303 306 306 327 336 134 107 210 236 162 155 137 96 113 87 66 50 66 38 85 130 197 193 196 311 315 303 329 316 283 271 285 290 309 328
297 293 285 292 298 296 288 253 267 272 302 310 319 329 140 115 214 254 180 163 152 127 106 104 103 76 69 42 33 127 160 182 150 96 8 289 300 245 255 266 243 264 260 306 315
304 298 291 297 297 303 282 211 245 251 261 310 329 107 146 131 165 343 166 163 121 115 81 95 60 68 86 99 28 104 129 130 140 342 307 265 286 274 243 260 264 265 277 283 294
297 295 291 297 301 309 270 345 289 271 266 283 328 262 139 122 105 321 167 117 89 81 91 111 76 111 111 107 85 86 340 318 270 279 245 239 252 258 268 256 263 275 270 260 263
286 288 293 299 292 288 250 77 315 287 278 233 277 115 95 160 324 112 100 78 88 80 84 67 129 116 101 85 82 216 283 282 270 280 270 275 272 220 253 252 267 279 281 276 257
272 272 269 269 278 302 320 191 233 279 305 262 268 248 126 111 108 74 85 81 90 125 91 54 109 75 107 109 21 18 347 324 4 351 313 323 281 229 256 291 279 285 288 283 270
261 259 278 286 282 346 20 343 296 269 294 260 253 70 96 251 140 100 97 67 59 59 91 83 85 94 67 131 33 51 47 355 12 338 360 55 277 277 277 297 295 292 289 291 285
254 128 20 351 95 66 20 321 341 281 261 182 122 105 156 102 120 108 100 110 84 62 60 67 66 75 36 72 28 19 50 345 317 294 301 41 290 256 281 288 290 288 289 294 297
160 94 97 103 99 65 86 46 10 58 87 97 90 103 170 105 96 82 78 91 95 78 49 44 50 67 51 71 207 124 20 304 261 264 314 293 272 285 297 298 285 291 300 301 298
114 103 97 103 80 55 60 50 1 62 23 46 107 69 103 125 35 64 75 72 64 48 83 24 80 102 158 117 121 126 114 303 246 265 285 269 279 298 313 335 337 330 335 332 322
84 83 87 105 75 67 76 93 163 138 58 35 93 84 99 110 115 45 65 87 69 94 93 47 86 165 106 125 130 133 303 287 287 248 281 298 295 300 294 290 347 359 1 346 357
68 76 87 125 92 56 83 83 171 200 87 31 37 60 44 71 87 52 63 91 99 91 93 103 148 110 126 152 184 219 211 232 252 309 275 298 280 271 236 259 31 12 356 349 16
51 58 74 152 51 308 48 29 62 296 83 14 40 69 284 186 71 35 37 106 83 138 147 132 131 150 170 218 166 278 205 231 263 308 317 19 287 277 330 290 2 0 7 353 6
37 30 48 48 93 45 169 5 315 302 76 6 25 202 84 56 132 19 6 42 117 144 107 243 159 145 221 219 180 234 231 276 286 268 292 207 258 256 319 332 346 7 8 356 356
43 41 50 28 46 349 307 327 124 52 60 43 344 121 103 47 46 62 33 45 113 140 65 229 178 187 216 218 216 250 308 285 266 235 237 204 204 274 335 333 328 349 13 2 8
43 58 72 107 338 326 328 12 56 59 277 350 64 91 73 76 63 84 124 129 124 78 6 321 215 208 177 267 205 213 267 306 347 230 235 171 193 280 309 327 307 25 26 10 26
301 5 351 130 265 235 107 55 66 51 63 189 91 67 70 137 47 151 123 110 119 82 82 58 347 189 179 228 277 183 227 246 271 297 297 157 242 275 331 36 46 44 18 21 38
26 15 319 296 339 116 75 55 83 157 153 153 161 121 132 106 129 109 84 51 136 167 83 5 291 156 200 149 213 114 232 236 279 241 271 218 271 180 355 346 11 12 1 30 41
26 2 291 335 58 83 83 88 93 191 146 179 116 47 86 18 61 39 40 237 311 161 200 81 294 223 111 100 245 220 277 235 216 308 291 265 290 309 332 8 20 23 357 52 58
43 29 270 341 73 39 66 77 101 164 64 71 111 86 91 110 88 136 160 253 249 128 172 82 63 296 104 208 177 173 246 229 274 241 301 314 348 357 6 355 62 71 68 81 81
95 50 305 4 60 33 56 15 342 3 344 65 93 101 101 135 116 114 167 211 184 153 157 241 190 265 226 300 3 149 149 162 157 226 232 259 287 348 94 81 106 77 100 107 111
69 296 332 75 78 9 344 74 100 33 30 24 51 56 110 140 90 162 204 193 158 149 175 183 236 324 351 5 24 61 100 223 144 63 229 175 285 137 125 111 143 159 177 195 257
64 27 345 44 58 73 25 11 30 14 53 57 37 62 101 54 31 40 2 71 174 195 217 154 212 186 196 223 185 287 266 220 162 173 189 224 237 197 167 172 196 214 230 239 257
32 155 190 348 357 32 62 7 7 10 352 29 57 36 302 78 11 23 318 335 175 168 138 161 253 191 257 247 219 235 249 224 192 234 193 255 206 223 201 194 202 204 210 219 237
104 128 40 37 306 1 15 359 13 342 16 355 76 341 36 118 168 266 64 188 213 315 153 113 257 281 284 228 213 263 241 218 234 213 242 210 259 212 187 163 197 218 211 220 224
143 46 96 332 2 75 346 334 344 278 62 114 322 352 1 288 231 237 223 244 232 212 240 140 70 42 270 359 299 288 226 186 185 195 173 196 229 167 200 210 214 215 213 221 222